Location: *
(43.4667°N, 11.6833°E)
Time: 01:19:09
(UTC+00:00)

ATLAS CENTAUR R/B - Pass Details

Date: 19 July 2019
Orbit: 446 x 703 km, 64.7° (Epoch: 25 July)

Event Time Altitude Azimuth Distance (km) Brightness Sun altitude
Rises 20:56:53 0° 333° (NNW) 3,049 6.8 -17.9°
Reaches altitude 10° 20:59:52 10° 351° (N) 2,096 5.3 -18.2°
Maximum altitude 21:03:21 20° 38° (NE) 1,502 3.7 -18.5°
Enters shadow 21:06:12 12° 80° (E) 1,863 3.8 -18.8°
